Location: De Glip
(52.3315°N, 4.6132°E)
Time: 22:32:47
(UTC+00:00)

Daily predictions for brighter satellites

Satellite Brightness Start Highest point End
(mag) Time Altitude Azimuth Time Altitude Azimuth Time Altitude Azimuth
Cosmos 1844 Rocket 3.4 17:59:27 10° SSE 18:04:17 31° ESE 18:09:09 10° NE
NOSS 3-2 (C) 4.1 17:57:52 10° NW 18:05:08 79° NE 18:13:29 10° SE
Cosmos 372 Rocket 4.1 18:01:00 10° S 18:06:05 53° ESE 18:11:09 10° NNE
ATLAS CENTAUR R/B 3.6 18:07:11 10° NW 18:09:33 16° NNW 18:11:54 10° NNE
ISS -3.4 18:08:00 10° WSW 18:11:17 50° SSE 18:14:35 10° E
Cosmos 1844 4.5 18:06:55 10° SSE 18:11:44 29° ESE 18:16:33 10° NE
Cosmos 2034 Rocket 4.5 18:06:39 10° SSE 18:12:27 39° E 18:18:14 10° NNE
Lacrosse 4 Rocket 3.2 18:10:28 10° NNW 18:13:11 17° NNE 18:15:55 10° ENE
USA 186 3.2 18:11:56 10° ESE 18:14:27 21° ENE 18:17:01 10° NNE
Cosmos 1898 Rocket 4.3 18:10:22 10° SW 18:15:27 57° WNW 18:20:37 10° NNE
Meteor 1-12 Rocket 4.4 18:10:00 10° S 18:15:39 53° E 18:21:15 10° NNE
Cosmos 1300 Rocket 3.7 18:16:37 10° S 18:20:54 51° E 18:25:14 10° NNE
CENTAUR R/B 3.2 18:16:18 10° NW 18:24:10 88° NE 18:32:58 10° SE
Okean 1 Rocket 4.3 18:20:50 10° SE 18:24:19 23° E 18:27:49 10° NE
Sich 1 Rocket 3.6 18:20:42 10° S 18:25:13 85° E 18:29:50 10° NNE
Cosmos 1833 Rocket 3.6 18:20:31 10° NNW 18:25:34 32° NE 18:30:12 12° ESE
NOSS 2-2 (E) 3.3 18:22:05 10° SW 18:25:40 81° NW 18:29:58 10° NE
Cosmos 2298 Rocket 4.1 18:22:10 10° S 18:27:21 55° ESE 18:32:34 10° NNE
Resurs 01 Rocket 3.5 18:25:52 11° E 18:28:11 15° NE 18:30:41 10° NNE
Cosmos 1975 4.3 18:24:38 10° SSW 18:28:33 43° WNW 18:32:27 10° N
Iridium 4 Rocket 4.4 18:24:31 10° SSW 18:29:43 58° W 18:35:22 10° N
CSL-04 Debris 4.2 18:26:13 10° SSE 18:31:37 86° WSW 18:37:04 10° NNW
Cosmos 1025 Rocket 3.1 18:28:41 10° N 18:33:07 90° ESE 18:37:31 10° S
CSL-04 Rocket 3.8 18:28:06 10° SSE 18:33:35 87° WSW 18:39:10 10° NNW
Cosmos 1766 4.5 18:32:13 10° SE 18:35:15 22° E 18:38:20 10° NE
Okean 2 Rocket 3.0 18:30:58 10° S 18:35:26 72° E 18:39:54 10° NNE
NOSS 2-2 (D) 3.3 18:31:58 10° SW 18:35:32 82° NW 18:39:44 10° NE
ATLAS 2AS CENTAUR R/B 3.7 18:29:01 10° SSE 18:35:35 29° ESE 18:42:07 10° ENE
Cosmos 1937 Rocket 4.4 18:30:30 10° SW 18:35:37 53° WNW 18:40:44 10° NNE
YAOGAN 1 3.3 18:31:56 10° S 18:36:12 56° W 18:40:28 10° NNW
ATLAS 3B R/B 3.0 18:29:57 10° NW 18:36:35 53° NNE 18:42:35 14° ESE
Abrixas rocket 3.5 18:37:50 10° WSW 18:40:16 25° SSW 18:42:11 13° SE
CREW DRAGON DEMO-1 DEB 4.0 18:39:15 10° W 18:42:03 34° SSW 18:44:16 14° SE
Cosmos 1536 Rocket 3.6 18:38:24 10° N 18:42:54 85° E 18:47:22 10° S
Cosmos 1513 Rocket 4.4 18:36:52 10° S 18:43:05 83° E 18:49:15 10° NNE
Cosmos 1125 Rocket 3.7 18:42:52 10° S 18:48:00 52° ESE 18:53:10 10° NNE
SJ-6B 3.1 18:48:31 15° SE 18:51:24 42° ENE 18:55:02 10° N
CZ-4 R/B 3.4 18:50:08 10° SSW 18:53:55 32° W 18:57:41 10° NNW
Cosmos 2150 Rocket 4.0 18:49:30 10° SSW 18:54:54 81° ESE 19:00:25 10° NNE
Cosmos 1674 2.6 18:51:26 10° N 18:55:18 80° ENE 18:59:09 10° SSE
Cosmos 2026 Rocket 4.2 18:49:39 10° N 18:55:53 51° ENE 19:02:05 10° SSE
CZ-2C R/B 3.9 18:50:41 10° S 18:56:00 57° W 19:01:38 10° NNW
Cosmos 1092 Rocket 4.0 18:50:01 10° N 18:56:09 63° ENE 19:02:18 10° SSE
Cosmos 1464 Rocket 4.1 18:50:18 10° S 18:56:27 84° W 19:02:42 10° N
Cosmos 2285 Rocket 4.1 18:52:39 10° S 18:58:46 54° ESE 19:04:58 10° NNE
MOS 1 Rocket 3.0 18:57:24 10° NNE 19:01:50 78° ESE 19:06:07 10° S
FREGAT/IRIS 2.4 19:04:41 42° ESE 19:05:08 48° ENE 19:07:40 10° N
ARGOS 3.5 19:06:11 10° S 19:11:31 68° WSW 19:16:55 10° NNW
CZ-2C R/B 2.9 19:06:33 10° NNE 19:12:00 51° E 19:17:26 10° S
Cosmos 1340 Rocket 3.4 19:15:11 32° ESE 19:15:37 33° E 19:19:15 10° NNE
Cosmos 1733 3.3 19:13:47 11° S 19:17:18 50° E 19:21:01 10° NNE
Cosmos 2151 Rocket 4.1 19:13:42 10° SSW 19:18:09 63° WNW 19:22:39 10° N
Lacrosse 5 rocket 2.1 19:14:08 10° WNW 19:18:24 49° N 19:20:43 25° ENE
Cosmos 2082 Rocket 2.8 19:13:27 10° NNW 19:18:46 41° NE 19:21:17 27° E
MOS 1 4.2 19:13:12 10° SSE 19:18:54 83° ENE 19:24:39 10° NNW
NOSS 2-2 (C) 4.5 19:16:59 10° WSW 19:20:28 42° NNW 19:24:39 10° NE
DMSP B5D2-2 4.2 19:16:40 10° NNE 19:21:51 51° E 19:27:00 10° S
BREEZE-M R/B 4.0 19:14:37 10° WSW 19:23:25 45° S 19:24:25 35° SE
Meteor 1-15 Rocket 4.3 19:23:13 10° SSW 19:28:54 83° WNW 19:34:44 10° NNE
OBJECT-B 0.7 19:28:48 58° ESE 19:29:07 62° ENE 19:32:22 10° N
Cosmos 1805 3.2 19:25:17 10° S 19:29:12 88° WNW 19:33:09 10° N
Ariane Rocket 3.3 19:28:18 10° S 19:33:22 69° WSW 19:38:28 10° NNW
SL-08 RB Rocket 4.4 19:28:59 10° S 19:33:28 54° W 19:37:55 10° NNW
H-2A R/B 3.6 19:30:31 10° SSW 19:35:04 34° W 19:39:46 10° NNW
Cosmos 1269 Rocket 4.3 19:30:17 10° NNW 19:35:34 66° WSW 19:39:33 18° S
Cosmos 1626 2.2 19:36:54 10° NNW 19:40:37 74° W 19:42:02 35° S
Okean 1-7 Rocket 3.7 19:36:24 10° N 19:40:55 55° ENE 19:41:50 46° ESE
Terra 3.8 19:42:51 15° NE 19:42:51 15° NE 19:45:25 10° NNE
Cosmos 2263 Rocket 4.5 19:39:57 10° W 19:44:22 23° NW 19:48:49 10° NNE
COSMOS 2406 3.3 19:39:11 10° NNW 19:44:52 76° WSW 19:47:55 28° SSE
MetOp-A 4.3 19:40:20 14° S 19:44:55 70° WSW 19:50:18 10° NNW
USA 186 3.5 19:42:34 14° SSW 19:45:00 32° W 19:48:01 10° NNW
Cosmos 1455 Rocket 3.7 19:47:18 37° ENE 19:47:18 37° ENE 19:50:35 10° NNE
Cosmos 1844 Rocket 3.3 19:42:26 10° SW 19:47:54 56° NW 19:53:27 10° NNE
ISS -3.7 19:44:37 10° W 19:47:46 74° WSW 19:47:46 74° WSW
SPOT 1/Viking Rocket 4.3 19:48:44 33° ENE 19:49:14 34° ENE 19:53:51 10° N
ATLAS CENTAUR R/B 3.6 19:48:01 10° NNW 19:49:51 13° N 19:51:16 11° NNE
Cosmos 2278 Rocket 2.4 19:51:32 43° ESE 19:51:59 44° ESE 19:57:20 10° NE
Lacrosse 4 Rocket 1.2 19:48:32 10° NNW 19:52:37 68° NE 19:52:52 66° ENE
Meteor 2-5 Rocket 4.4 19:49:23 10° NNW 19:54:54 54° W 20:00:29 10° S
Cosmos 1844 4.2 19:49:57 10° SW 19:55:34 60° NW 20:01:10 10° NNE
Meteor 1-22 Rocket 4.3 19:50:49 10° S 19:56:46 87° E 20:02:55 10° NNE
Meteor 1-24 Rocket 4.1 19:51:47 10° NNW 19:57:17 65° W 20:01:37 18° S
Cosmos 909 Rocket 4.0 19:51:03 10° NW 19:57:44 74° NE 19:59:55 43° ESE
Cosmos 2266 Rocket 4.1 19:53:36 10° N 19:59:29 49° ENE 20:00:34 44° ESE
Exosat Rocket 3.9 19:54:43 10° SW 19:59:52 65° WNW 20:04:58 10° NNE
SL-14 R/B 4.0 19:56:40 10° NNW 20:00:31 53° W 20:01:54 34° SSW
Meteor 2-19 Rocket 4.3 19:55:18 10° N 20:01:27 77° ENE 20:03:47 40° SSE
Okean 1 Rocket 4.0 19:57:34 10° SSW 20:01:55 49° WNW 20:06:18 10° N
NOSS 3-4 (A) 3.3 19:57:02 10° SW 20:02:57 76° SE 20:09:25 10° NE
NOSS 3-4 (C) 3.3 19:57:08 10° SW 20:03:04 76° SE 20:09:31 10° NE
Resurs 01 Rocket 1.5 20:03:26 67° SSE 20:04:01 85° ENE 20:08:31 10° NNW
Cosmos 614 Rocket 4.5 20:01:35 10° NNW 20:06:30 42° NE 20:06:44 41° ENE
Cosmos 1833 Rocket 2.9 20:04:20 10° NW 20:09:57 67° WSW 20:11:54 40° S
CZ-2C R/B 3.8 20:06:06 10° NNE 20:09:58 59° NE 20:09:58 59° NE
Cosmos 1470 4.0 20:12:29 31° NNE 20:12:29 31° NNE 20:14:38 10° NNE
Cosmos 2251 Rocket 3.4 20:07:27 10° NNW 20:12:52 83° ENE 20:13:44 64° SE
CENTAUR R/B 4.5 20:07:27 10° NW 20:14:28 33° WSW 20:21:59 10° S
ERS-1 Rocket 3.8 20:17:39 36° NE 20:17:39 36° NE 20:21:48 10° N
IGS 5A 4.0 20:18:58 48° NNE 20:18:58 48° NNE 20:22:12 10° N
ARIANE 5 R/B 2.7 20:20:05 64° NNE 20:20:05 64° NNE 20:23:54 10° NNW
SPOT 3 Rocket 4.0 20:20:50 35° SSW 20:22:47 56° W 20:27:52 10° NNW
Cosmos 1634 Rocket 4.5 20:19:14 10° SSW 20:25:20 59° WNW 20:31:29 10° N
ATLAS 2AS CENTAUR R/B 2.9 20:17:52 10° SW 20:25:52 89° SE 20:33:44 10° NE
ATLAS 3B R/B 3.1 20:20:47 10° NW 20:27:26 56° SW 20:29:50 39° S
Landsat 7 3.8 20:27:58 72° NNE 20:27:58 72° NNE 20:32:25 10° NNW
Meteor 1-21 Rocket 4.1 20:26:50 10° NNW 20:32:40 84° ENE 20:33:15 73° SE
SPOT 5 3.7 20:33:48 44° NE 20:33:48 44° NE 20:38:20 10° N
Meteor 2-10 4.2 20:34:18 63° NE 20:34:18 63° NE 20:38:58 10° NNE
Cosmos 1655 Rocket 4.0 20:29:53 10° NNW 20:36:11 79° W 20:37:50 52° S
Cosmos 1461 3.6 20:35:24 10° NW 20:39:30 57° N 20:39:30 57° N
CZ-2C R/B 4.3 20:47:10 10° N 20:52:07 34° WNW 20:57:05 10° SW
Lacrosse 5 rocket 2.7 20:53:23 10° WNW 20:56:20 41° WNW 20:56:20 41° WNW
Cosmos 2098 Rocket 4.4 20:53:51 10° NNW 21:00:29 55° W 21:01:45 47° SW
OBJECT-B 4.0 21:02:00 11° W 21:02:00 11° W 21:02:48 10° WNW
Cosmos 2082 Rocket 2.8 20:57:36 10° NW 21:02:58 46° WSW 21:03:08 46° WSW
Spot 2 Rocket 4.0 21:05:26 56° WNW 21:05:26 56° WNW 21:09:53 10° NNW
Meteor 2-21 4.4 21:03:39 10° NNW 21:09:42 82° WNW 21:09:42 82° WNW
COSMOS 2455 4.5 21:14:36 23° NE 21:14:36 23° NE 21:16:41 10° NE
Terra 3.1 21:21:44 36° N 21:21:44 36° N 21:24:34 10° NNW
Cosmos 1140 Rocket 4.4 21:17:44 10° NNW 21:21:18 45° NNW 21:21:18 45° NNW
Cosmos 407 Rocket 4.4 21:22:51 10° NNW 21:26:26 45° NW 21:26:26 45° NW
ATLAS CENTAUR R/B 4.1 21:26:40 10° NNW 21:27:26 14° NNW 21:27:26 14° NNW
Lacrosse 4 Rocket 4.1 21:28:04 10° WNW 21:29:10 14° W 21:29:10 14° W
Cosmos 2278 Rocket 3.2 21:33:01 23° WSW 21:36:08 43° NW 21:41:32 10° NNE
Resurs 01 Rocket 4.2 21:41:01 14° W 21:41:09 14° W 21:43:30 10° NW
USA 229 DEB 4.2 21:41:50 10° NW 21:48:48 54° NNE 21:49:03 54° NE
USA 229 4.2 21:41:56 10° NW 21:48:54 54° NNE 21:49:09 54° NE
NOSS 3-1 (A) 4.3 21:54:10 10° NW 22:01:01 54° NNE 22:01:23 53° NE
Cosmos 2227 Rocket 4.3 22:07:15 10° NNW 22:11:07 18° NNE 22:11:40 18° NE
ATLAS 2AS CENTAUR R/B 3.9 22:10:09 10° W 22:17:43 44° NNW 22:25:01 10° NE
Cosmos 1943 Rocket 4.2 22:24:03 19° NNE 22:24:03 19° NNE 22:25:36 10° NNE
NOSS 3-1 (C) 4.3 22:31:45 10° NW 22:37:24 61° NW 22:37:24 61° NW
CZ-4C R/B 3.9 22:45:17 30° NNE 22:45:17 30° NNE 22:48:53 10° NE
COSMOS 2455 4.2 22:57:42 34° NNW 22:57:42 34° NNW 23:02:39 10° NNE
Cosmos 2297 Rocket 4.0 22:52:56 10° NNW 22:56:27 27° NNE 22:56:27 27° NNE
Cosmos 2369 Rocket 4.1 23:10:31 25° NNE 23:10:31 25° NNE 23:12:48 10° NNE
SL-16 R/B 4.0 23:50:37 30° NE 23:50:37 30° NE 23:55:27 10° N
